CZ-6A DEB

Satellite information

Favourite Embed

Satellite Type and Status

DEBRISIN ORBIT

Key statistics

Satellite CZ-6A DEB at a glance.

Uptime

969

Days in orbit

Revolutions

≈ 14.1

Per day

Orbit

SSO

Sun Synchronous Orbit

Inclination

98.9

Latest

Satellite identification and parameters

Extended collection of information and parameters for CZ-6A DEB.

Object identification

Identified? True

Debris? True

Object name: CZ-6A DEB

International designator: 2022-151GD

Object number (NORAD): 54453

Object ID (CCSDS): 54453

Country: PEOPLES REPUBLIC OF CHINA (PRC)

Current information (Y/N): Y

RCS size: SMALL

Orbital parameters

Period: 102.037 minutes

Inclination: 98.9155 deg

SMA: 7233.217 km

Apoapsis: 915.305 km

Periapsis: 794.859 km

RAAN: 196.174 deg

Eccentricy: 0.0083259

Argument of periapsis: 199.7138 deg

Mean anomaly: 160.0808 deg

Mean motion: 14.11255167 rev/day

Mean motion (dot): 0.00001342 rev/day2

B* drag term: 0.0007436 1/REarth

Two-line elements (TLE)

Creation date: July 6, 2025, 6:05 p.m.

Reference frame: TEME

Reference center: EARTH

Epoch: July 6, 2025, 2:41 p.m. UTC

TLE line 0: 0 CZ-6A DEB

TLE line 1: 1 54453U 22151GD 25187.61199079 .00001342 00000-0 74360-3 0 9990

TLE line 2: 2 54453 98.9155 196.1740 0083259 199.7138 160.0808 14.11255167135817

Live tracking on map

Real-time ground track for satellite CZ-6A DEB.

In-orbit conjunctions

A list of the most updated potential collisions computed for object CZ-6A DEB.

Target Orbit TCA Probability of collision Miss distance Type
THORAD AGENA D DEB SSO 2025-06-21 22:50:16 0.0003034673 34.0 (m) DEBRIS
CZ-6A DEB LEO 2024-11-24 14:57:05 0.0001784521 858.0 (m) DEBRIS
METEOR 2-5 DEB LEO 2024-09-13 23:45:43 0.0004439317 43.0 (m) DEBRIS

Associated space launch

Chinese satellite reported for atmospheric/ocean/environmental/spatial parameter research purposes, details TBD.

CZ-6A DEB was lifted into orbit during the mission ‘Long March 6A | Yunhai 3’, on board a Long March 6A space rocket.

The launch took place on Nov. 11, 2022, 10:52 p.m. from Launch Complex 9A.

For more information about the launch, click the button.

Launch to space Long March 6A | Yunhai 3
Long March 6A | Yunhai 3

Agency: N/A

Status: Launch Successful

Launch date: Nov. 11, 2022, 10:52 p.m. UTC

Rocket: Long March 6A

Launch pad: Launch Complex 9A

Location: Taiyuan Satellite Launch Center, People's Republic of China

...

Latest news about this satellite

There are no fresh news available about this satellite. Check back as we update our databases every day.


Newsletter sign-up

Weekly statistics, charts and insights to help you stay on top of the space industry.